Regional Weather Roundup
Issued by NWS

Home | Current Version | Previous Version | Text Only | Print | Product List | Glossary Off
Versions: 1 2 3 4 5 6 7 8 9 10 11 12 13 14 15 16 17 18 19 20 21 22 23 24 25 26 27 28 29 30 31 32 33 34 35 36 37 38 39 40 41 42 43 44 45 46 47 48 49 50

000
ASUS43 KOAX 010402
RWRNE

WEATHER ROUNDUP FOR NEBRASKA
NATIONAL WEATHER SERVICE OMAHA NE
1000 PM CST SAT FEB 28 2015

NOTES: SATELLITE DATA IS BEING USED TO AUGMENT CLOUD COVER ABOVE
       12000 FEET.
       "FAIR" INDICATES FEW OR NO CLOUDS BELOW 12,000 FEET WITH NO
       SIGNIFICANT WEATHER AND/OR OBSTRUCTIONS TO VISIBILITY.

  * THESE STATIONS DO NOT REPORT WEATHER SUCH AS RAIN...SNOW OR FOG.

NEZ001>004-019>022-054>056-010500-
NEBRASKA PANHANDLE

CITY           SKY/WX    TMP DP  RH WIND       PRES   REMARKS
SCOTTSBLUFF    PTCLDY    21  12  68 E9        30.08R WCI  11
ALLIANCE       PTCLDY    19  12  74 NE3       30.09R
CHADRON        CLOUDY    21  12  68 NE10      30.15R WCI  10
KIMBALL        MOCLDY    19  16  88 CALM      30.02R
SIDNEY         MOCLDY    18  13  80 SE3       30.07S
$$

NEZ057>060-069>072-079>082-010500-
SOUTHWEST NEBRASKA

CITY           SKY/WX    TMP DP  RH WIND       PRES   REMARKS
NORTH PLATTE   PTCLDY    17  10  74 S5        30.19R WCI  10
IMPERIAL         N/A     16  10  77 SE6       30.15R WCI   7
LEXINGTON      PTCLDY    16  13  86 S7        30.21F WCI   6
MCCOOK         CLOUDY    24  14  65 S7        30.22R WCI  16
$$

NEZ005>010-023>029-035>040-094-010500-
NORTH CENTRAL NEBRASKA

CITY           SKY/WX    TMP DP  RH WIND       PRES   REMARKS
VALENTINE      CLEAR     21   6  52 N7        30.18S WCI  12
AINSWORTH      CLEAR     22   7  51 NE3       30.18R
BROKEN BOW     PTCLDY    17   9  70 CALM      30.19F
ORD            PTCLDY    18   9  68 CALM      30.23R
$$

NEZ041-046>049-061>064-073>077-083>087-010500-
SOUTH CENTRAL NEBRASKA

CITY           SKY/WX    TMP DP  RH WIND       PRES   REMARKS
GRAND ISLAND   FAIR      16  12  84 S9        30.29R WCI   4
HASTINGS       MOCLDY    18  13  80 S7        30.27S WCI   9
HEBRON         FLURRIES  20  15  81 CALM      30.34R
KEARNEY *      PTCLDY    16  10  79 S9        30.25S WCI   4
$$

NEZ011>018-030>034-042>045-010500-
NORTHEAST NEBRASKA

CITY           SKY/WX    TMP DP  RH WIND       PRES   REMARKS
NORFOLK        CLEAR     18  12  77 S13       30.27R WCI   5
BLAIR          FLURRIES  23  19  86 S8        30.32S WCI  14
COLUMBUS *     CLEAR     19   9  63 S8        30.32R WCI   9
FREMONT        CLOUDY    23  19  83 S8        30.33S WCI  14
$$

NEZ050>053-065>068-078-088>093-010500-
SOUTHEAST NEBRASKA

CITY           SKY/WX    TMP DP  RH WIND       PRES   REMARKS
LINCOLN        CLOUDY    22  15  75 SW5       30.36R WCI  16
OMAHA EPPLEY   FLURRIES  23  18  81 S10       30.37S WCI  12
FALLS CITY     PTCLDY    19  15  84 CALM      30.38R
$$

NEZ044-045-051>053-067-010500-
OMAHA AREA

CITY           SKY/WX    TMP DP  RH WIND       PRES   REMARKS
OMAHA EPPLEY   FLURRIES  23  18  81 S10       30.37S WCI  12
BLAIR          FLURRIES  23  19  86 S8        30.32S WCI  14
FREMONT        CLOUDY    23  19  83 S8        30.33S WCI  14
OFFUTT AFB     CLOUDY    23  18  80 S6        30.36R WCI  16
$$


USA.gov is the U.S. government's official web portal to all federal, state and local government web resources and services.